• MPC Preparation (Info)

  • MPEC 2011-Q49 : 2011 QV37

    The following Minor Planet Electronic Circular may be linked-to from your own Web pages, but must not otherwise be redistributed electronically.

    A form allowing access to any MPEC is at the bottom of this page.


    Read MPEC 2011-Q48 Read MPEC 2011-Q50


    M.P.E.C. 2011-Q49                                Issued 2011 Aug. 29, 19:31 UT
    
         The Minor Planet Electronic Circulars contain information on unusual
             minor planets and routine data on comets.  They are published
       on behalf of Commission 20 of the International Astronomical Union by the
              Minor Planet Center, Smithsonian Astrophysical Observatory,
                              Cambridge, MA 02138, U.S.A.
    
                 Prepared using the Tamkin Foundation Computer Network
    
                                  MPC@CFA.HARVARD.EDU
                URL https://www.minorplanetcenter.net/    ISSN 1523-6714
    
                                       2011 QV37
    
    Observations:
         K11Q37V* C2011 08 24.43872 23 10 52.244-10 05 54.36         22.5 wLEQ049F51
         K11Q37V  C2011 08 24.45274 23 10 51.852-10 05 01.59         22.3 wLEQ049F51
         K11Q37V  C2011 08 24.46669 23 10 51.461-10 04 09.05         22.5 wLEQ049F51
         K11Q37V KC2011 08 26.25298423 10 24.22 -08 11 20.1          22.0 VtEQ049H21
         K11Q37V KC2011 08 26.26739723 10 23.81 -08 10 25.8          21.9 VtEQ049H21
         K11Q37V KC2011 08 26.28198623 10 23.43 -08 09 30.0          22.1 VtEQ049H21
         K11Q37V 2C2011 08 29.35436023 09 24.247-04 51 51.63         21.7 RoEQ049568
         K11Q37V 2C2011 08 29.35637823 09 24.180-04 51 43.78         21.6 RoEQ049568
    
    Observer details:
    568 Mauna Kea.  Observers M. Micheli, G. T. Elliott.  Measurer D. J. Tholen.
        2.24-m University of Hawaii reflector.
    F51 Pan-STARRS 1, Haleakala.  Observers N. Primak, A. Schultz, S. Watters,
        J. Thiel, T. Goggia.  Measurer PS1 Science Consortium.  1.8-m
        Ritchey-Chretien + CCD.
    H21 Astronomical Research Observatory, Westfield.  Observer R. Holmes.
        Measurers T. Vorobjov, S. Foglia, L. Buzzi.  0.81-m f/4.0 astrograph + CCD.
    
    Orbital elements:
    2011 QV37                                                Earth MOID = 0.2492 AU
    Epoch 2011 Aug. 27.0 TT = JDT 2455800.5                 MPC
    M 358.62325              (2000.0)            P               Q
    n   0.22661884     Peri.    3.65139     +0.94436516     +0.31568666
    a   2.6644365      Node   337.27111     -0.30748657     +0.74783284
    e   0.5278262      Incl.   13.81860     -0.11673241     +0.58402738
    P   4.35           H   24.1           G   0.15           U   7
    Residuals in seconds of arc
    110824 F51  0.2+  0.1-    110826 H21  0.2-  0.5+    110829 568  0.0   0.0
    110824 F51  0.0   0.0     110826 H21  0.2-  0.3-    110829 568  0.0   0.0
    110824 F51  0.2-  0.1+    110826 H21  0.3+  0.2-
    
    Ephemeris:
    2011 QV37                a,e,i = 2.66, 0.53, 14                  q = 1.2581
    Date    TT    R. A. (2000) Decl.     Delta      r     Elong.  Phase     V
    2011 07 30    23 02 19.1 -30 35 28   0.3465  1.3134   144.7    26.6    23.6
    ...
    2011 08 14    23 11 02.1 -20 08 47   0.2822  1.2758   155.9    18.9    22.8
    ...
    2011 08 22    23 11 18.3 -12 36 19   0.2615  1.2641   163.1    13.4    22.5
    ...
    2011 08 28    23 09 51.4 -06 19 03   0.2533  1.2593   168.2     9.5    22.2
    2011 08 29    23 09 30.6 -05 14 34   0.2526  1.2589   168.8     8.9    22.2
    2011 08 30    23 09 08.4 -04 09 56   0.2521  1.2585   169.4     8.5    22.2
    ...
    2011 09 05    23 06 34.9 +02 14 37   0.2531  1.2585   170.1     7.9    22.2
    ...
    2011 09 13    23 03 01.9 +10 07 12   0.2647  1.2639   165.0    11.9    22.4
    ...
    2011 09 28    22 59 37.9 +20 57 04   0.3141  1.2905   153.2    20.5    23.2
    
    A. U. Tomatic                (C) Copyright 2011 MPC           M.P.E.C. 2011-Q49
    

    Read MPEC 2011-Q48 Read MPEC 2011-Q50


    MPEC number:

    Enter an MPEC number in one of the following forms:

    • 1997-B01 (the full form)
    • J97B01 (the packed version of the full form)
    • B01 (the abbreviated form)